Weather in Altun

Russia / Pskov Oblast     57°03′12″N   29°08′01″E
temp.,
°C
wind,
m/s
gust,
m/s
humid.,
%
clouds,
%
prec.,
mm/h
press.,
hPa
HPBL,
m
8 august, mon
mon800:00+12se1174100 0.0 102211
03:00+12ssw2271100 0.0 102321
06:00+12s2275100 0.0 102333
09:00+17sw235971 0.0 1023374
12:00+21sw224416 0.0 10231786
15:00+21w3349100 0.0 10221269
18:00+19nw136790 0.0 1022131
21:00+15ene018192 0.0 102311
9 august, tue
tue900:00+14e1191100 0.7 102411
03:00+13n0192100 0.9 102411
06:00+13n1193100 0.1 102419
09:00+14n139282 0.3 1025146
12:00+18ne227453 1.6 1025514
15:00+18ne23788 4.1 1025474
18:00+18nne24765 1.6 1025472
21:00+14ne11915 1.8 102511
10 august, wed
wed1000:00+11ne11950 0.0 102610
03:00+11ne11960 0.0 102610
06:00+10ene11962 0.0 102713
09:00+16ne23773 0.0 1027336
12:00+21nne24470 0.0 10271453
15:00+22nne33389 0.0 10252139
18:00+21nne2347100 0.0 10261881
21:00+14e117150 0.0 102611
11 august, thu
thu1100:00+12se1172100 0.0 102710
03:00+11sse11755 0.0 102710
06:00+11s117910 0.0 102710
09:00+18wsw00575 0.0 1027258
12:00+23wnw1141100 0.0 10271556
15:00+23wsw223894 0.0 10251754
18:00+23w1351100 0.0 1025802
21:00+16s1171100 0.0 102511
12 august, fri
fri1200:00+15ssw2273100 0.0 102628
03:00+13sw23765 0.0 102660
06:00+12wsw22825 0.0 102736
09:00+19wsw23614 0.0 1027287
12:00+24wsw23455 0.0 10261073
15:00+26w23395 0.0 10251533
18:00+25wnw23498 0.0 10241225
21:00+18ssw007249 0.0 102411